Miscellaneous Local Product
Issued by NWS North Platte, NE

Home | Current Version | Previous Version | Graphics & Text | Print | Product List | Glossary On
Versions: 1 2 3 4 5 6 7 8 9 10 11 12 13 14 15 16 17 18 19 20 21 22 23 24 25 26 27 28 29 30 31 32 33 34 35 36 37 38 39 40 41 42 43 44 45 46 47 48 49 50
000
AXUS43 KLBF 281510
MISLBF


WESTERN AND NORTH CENTRAL NEBRASKA HOURLY WEATHER ROUNDUP
NATIONAL WEATHER SERVICE NORTH PLATTE NE
1000 AM CDT TUE MAR 28 2017

NOTE: "FAIR" INDICATES FEW OR NO CLOUDS BELOW 12,000 FEET WITH NO
SIGNIFICANT WEATHER AND/OR OBSTRUCTIONS TO VISIBILITY.

NOTE: STATIONS NOT REPORTING VARIABLES SUCH AS SKY/WEATHER OR
PRESSURE ARE PROVIDED BY RAWS AND APRS NETWORKS AND ARE NOT UNDER
NATIONAL WEATHER SERVICE QUALITY CONTROL.

...OBSERVATIONS IN AND NEAR THE EASTERN PANHANDLE OF NEBRASKA...

CITY           SKY/WX    TMP DP  RH WIND       PRES   REMARKS
PINE RIDGE     RAIN      47  47 100 CALM      30.00R FOG
CHADRON        RAIN      44  42  93 CALM      30.00R FOG
ALLIANCE       RAIN      44  42  93 E10       29.95S FOG
SIDNEY         LGT RAIN  44  43  96 SE15G22   29.91R FOG
CRESCENT LAKE    N/A     44  44 100 SE9G16      N/A
$$

...OBSERVATIONS IN NORTHERN NEBRASKA AND FAR SOUTHERN SOUTH DAKOTA...

CITY           SKY/WX    TMP DP  RH WIND       PRES   REMARKS
WINNER         LGT RAIN  47  45  93 SE8       30.07R FOG
VALENTINE      CLOUDY    46  42  86 E10       30.05R
THEDFORD       CLOUDY    43  43  98 E7        30.04R FOG
AINSWORTH      LGT RAIN  42  42 100 SE6       30.06S
O`NEILL        CLOUDY    44  43  96 SW5       30.09R FOG
ORD            CLOUDY    45  41  86 SE6       30.06S FOG
BROKEN BOW     CLOUDY    44  43  96 E9        30.04R FOG
VALENTINE NWR    N/A     42  42 100 SE6         N/A
HALSEY           N/A     42  42 100 E5          N/A
BUTTE            N/A     43  40  89 CALM        N/A
CHAMBERS         N/A     46  44  94 CALM        N/A
EWING            N/A     44  42  93 S3          N/A
$$

...OBSERVATIONS IN SOUTHWEST NEBRASKA AND FAR NORTHEAST COLORADO...

CITY           SKY/WX    TMP DP  RH WIND       PRES   REMARKS
HOLYOKE        LGT RAIN  46  43  87 SE13      29.92S
IMPERIAL       LGT RAIN  45  43  93 SE13      29.95R FOG
OGALLALA       LGT RAIN  45  44  95 E10       29.97S
NORTH PLATTE   LGT RAIN  45  43  93 SE13      30.01S FOG
MCCOOK         LGT RAIN  46  45  96 SE12      29.99R FOG
LEXINGTON      CLOUDY    45  43  95 SE10      30.03S FOG
STAPLETON        N/A     41  40  97 SE3         N/A
GOTHENBURG       N/A     42  42 100 E8          N/A
CALLAWAY         N/A     42  41  98 SE12        N/A
$$

...OBSERVATIONS IN CENTRAL LINCOLN COUNTY AREA...

CITY           SKY/WX    TMP DP  RH WIND       PRES   REMARKS
N.P. AIRPORT   LGT RAIN  45  43  93 SE13      30.01S FOG
N.P. DOWNTOWN    N/A     44  43  96 MISG        N/A
N.P. SOUTHEAST   N/A     43  41  94 E6          N/A
N.P. HILLCREST   N/A     43  42  97 SE10        N/A
$$

...SOME OBSERVATIONS FROM AROUND THE REGION...

CITY           SKY/WX    TMP DP  RH WIND       PRES   REMARKS
DENVER         CLOUDY    44  40  85 NW14      29.85R
LIMON          CLOUDY    41  41 100 S12       29.86S FOG
ASPEN          SNOW      33  33 100 N5        29.88R VSB 1/4 WCI  29
LARAMIE        CLOUDY    34  34 100 N8        29.91S FOG     WCI  27
CASPER         CLOUDY    39  37  92 N21       29.99R WCI  29
CHEYENNE       CLOUDY    38  37  97 N15       29.89S FOG     WCI  29
SCOTTSBLUFF    CLOUDY    46  43  89 SE13      29.92R
GRAND ISLAND   MOSUNNY   41  41 100 E6        30.09R FOG
OMAHA          CLOUDY    43  39  86 N6        30.12R
SIOUX FALLS    PTSUNNY   47  41  80 CALM      30.13R
PIERRE         CLOUDY    47  40  76 E8        30.06R
RAPID CITY     LGT RAIN  42  34  73 N3        30.01R
BISMARCK       FOG       35  34  96 E8        30.13R VSB 1/2 WCI  29
KANSAS CITY    DRIZZLE   48  47  96 NE6       30.09R FOG
HILL CITY      LGT RAIN  47  47 100 E8        30.00F FOG
WICHITA        CLOUDY    51  45  79 E10       30.01F
DODGE CITY     CLOUDY    47  45  93 E16       29.94F FOG
OKLAHOMA CITY  CLOUDY    53  48  83 E15       29.96S
DALLAS         CLOUDY    67  61  81 E9        29.89S
AMARILLO       LGT RAIN  49  49 100 SE20G30   29.80F FOG
$$




USA.gov is the U.S. government's official web portal to all federal, state and local government web resources and services.